sat.trackr.live / text

‹ back to catalog

STARLINK-36575

NORAD 67569 · 2026-016J

PAYLOAD ACTIVE UNKNOWN

§ Identity

Operator
Country
US
Launch date
2026-01-25
Launch site
AFWTR
Launch vehicle
Mass (kg)
RCS (m²)

Purposes: comms

External: N2YO · Heavens-Above · Gunter

§ Orbital elements

Epoch: 2026-05-25T02:49:44.265216Z

Period
93.91 min
Inclination
97.2838°
Eccentricity
0.0000863
Mean motion
15.33460403 rev/d
Perigee alt
464.9 km
Apogee alt
466.1 km
Semi-major
6,843.6 km
B*
8.3673e-4
RAAN
206.4628°
Arg perigee
91.9241°
Mean anomaly
268.2101°
Rev number
1,864

§ Raw data

STARLINK-365751 67569U 26016J   26145.11787344  .00027047  00000+0  83673-3 0  99902 67569  97.2838 206.4628 0000863  91.9241 268.2101 15.33460403 18641

JSON: /api/v1/satellites/67569 · /tle

For live sub-satellite position, see the globe view (requires WebGL).

§ Visibility from observer

Set your observer location to see the next 7 days of passes ≥ 10°. The values pass through the URL so the page stays shareable.

No JS? Fill the form by hand. The geolocation button needs JavaScript.